Year,Month,Day,Hour,Minute,Value (Times are PST for temperature in C)
2018,07,13,13,31,22.90
2018,07,13,13,32,22.90
2018,07,13,13,33,22.80
2018,07,13,13,34,22.80
2018,07,13,13,35,22.80
2018,07,13,13,36,22.80
2018,07,13,13,37,22.90
2018,07,13,13,38,23.00
2018,07,13,13,39,23.10
2018,07,13,13,40,23.20
2018,07,13,13,41,23.20
2018,07,13,13,42,23.30
2018,07,13,13,43,23.30
2018,07,13,13,44,23.40
2018,07,13,13,45,23.40
2018,07,13,13,46,23.40
2018,07,13,13,47,23.30
2018,07,13,13,48,23.20
2018,07,13,13,49,23.20
2018,07,13,13,50,23.20
2018,07,13,13,51,23.20
2018,07,13,13,52,23.30
2018,07,13,13,53,23.30
2018,07,13,13,54,23.30
2018,07,13,13,55,23.30
2018,07,13,13,56,23.30
2018,07,13,13,57,23.30
2018,07,13,13,58,23.30
2018,07,13,13,59,23.40
2018,07,13,14,00,23.40
2018,07,13,14,01,23.40
2018,07,13,14,02,23.30
2018,07,13,14,03,23.30
2018,07,13,14,04,23.20
2018,07,13,14,05,23.20
2018,07,13,14,06,23.10
2018,07,13,14,07,23.00
2018,07,13,14,08,23.00
2018,07,13,14,09,23.00
2018,07,13,14,10,22.90
2018,07,13,14,11,22.90
2018,07,13,14,12,22.90
2018,07,13,14,13,22.90
2018,07,13,14,14,23.00
2018,07,13,14,15,23.00
2018,07,13,14,16,23.00
2018,07,13,14,17,23.00
2018,07,13,14,18,23.00
2018,07,13,14,19,23.00
2018,07,13,14,20,23.00
2018,07,13,14,21,23.00
2018,07,13,14,22,23.10
2018,07,13,14,23,23.10
2018,07,13,14,24,23.10
2018,07,13,14,25,23.10
2018,07,13,14,26,23.00
2018,07,13,14,27,22.90
2018,07,13,14,28,22.80
2018,07,13,14,29,22.70
2018,07,13,14,30,22.70
2018,07,13,14,31,22.80
2018,07,13,14,32,22.90
2018,07,13,14,33,23.00
2018,07,13,14,34,23.10
2018,07,13,14,35,23.20
2018,07,13,14,36,23.20
2018,07,13,14,37,23.20
2018,07,13,14,38,23.20
2018,07,13,14,39,23.30
2018,07,13,14,40,23.30
2018,07,13,14,41,23.40
2018,07,13,14,42,23.50
2018,07,13,14,43,23.70
2018,07,13,14,44,23.80
2018,07,13,14,45,23.90
2018,07,13,14,46,24.00
2018,07,13,14,47,24.00
2018,07,13,14,48,24.10
2018,07,13,14,49,24.10
2018,07,13,14,50,24.10
2018,07,13,14,51,24.00
2018,07,13,14,52,24.00
2018,07,13,14,53,23.90
2018,07,13,14,54,23.80
2018,07,13,14,55,23.80
2018,07,13,14,56,23.80
2018,07,13,14,57,23.80
2018,07,13,14,58,24.00
2018,07,13,14,59,24.10
2018,07,13,15,00,24.20
2018,07,13,15,01,24.30
2018,07,13,15,02,24.40
2018,07,13,15,03,24.50
2018,07,13,15,04,24.60
2018,07,13,15,05,24.70
2018,07,13,15,06,24.70
2018,07,13,15,07,24.70
2018,07,13,15,08,24.70
2018,07,13,15,09,24.70
2018,07,13,15,10,24.70
2018,07,13,15,11,24.70
2018,07,13,15,12,24.70
2018,07,13,15,13,24.70
2018,07,13,15,14,24.60
2018,07,13,15,15,24.50
2018,07,13,15,16,24.50
2018,07,13,15,17,24.40
2018,07,13,15,18,24.40
2018,07,13,15,19,24.30
2018,07,13,15,20,24.30
2018,07,13,15,21,24.30
2018,07,13,15,22,24.30
2018,07,13,15,23,24.30
2018,07,13,15,24,24.30
2018,07,13,15,25,24.20
2018,07,13,15,26,24.20
2018,07,13,15,27,24.30
2018,07,13,15,28,24.30
2018,07,13,15,29,24.30
2018,07,13,15,30,24.40
2018,07,13,15,31,24.50
2018,07,13,15,32,24.60
2018,07,13,15,33,24.60
2018,07,13,15,34,24.60
2018,07,13,15,35,24.60
2018,07,13,15,36,24.50
2018,07,13,15,37,24.40
2018,07,13,15,38,24.30
2018,07,13,15,39,24.30
2018,07,13,15,40,24.30
2018,07,13,15,41,24.30
2018,07,13,15,42,24.20
2018,07,13,15,43,24.20
2018,07,13,15,44,24.20
2018,07,13,15,45,24.20
2018,07,13,15,46,24.20
2018,07,13,15,47,24.10
2018,07,13,15,48,24.10
2018,07,13,15,49,24.10
2018,07,13,15,50,24.00
2018,07,13,15,51,23.90
2018,07,13,15,52,23.90
2018,07,13,15,53,23.90
2018,07,13,15,54,23.90
2018,07,13,15,55,23.90
2018,07,13,15,56,23.90
2018,07,13,15,57,23.90
2018,07,13,15,58,23.90
2018,07,13,15,59,24.00
2018,07,13,16,00,24.10
2018,07,13,16,01,24.30
2018,07,13,16,02,24.30
